[Date Prev][Date Next][Thread Prev][Thread Next] - [Date Index][Thread Index][Author Index]
2 Line ISS Keps 12-22
- Subject: [sarex] 2 Line ISS Keps 12-22
- From: "Dave Larsen PhD" <doc@xxxxxxxxxxx>
- Date: Tue, 21 Dec 2004 16:23:51 -0800
ISS
1 25544U 98067A 04356.86901741 .00019162 00000-0 15005-3 0 4150
2 25544 51.6388 87.6690 0004107 126.5991 338.0877 15.71615661347801
----
Via the sarex mailing list at AMSAT.ORG courtesy of AMSAT-NA.
To unsubscribe, send "unsubscribe sarex" to Majordomo@amsat.org
AMSAT Home